Volver al catálogo

SHIYAN 6 03

SY-6 03

ActivoCienciaSSO
NORAD 48157·PAYLOAD·🇨🇳 China

Lanzado Apr 8, 2021 desde Taiyuan Satellite Launch Center

Loading…

Próximos Pases (próximas 24 horas)

TLE

ActualizadoSource: Space-Track

Época: Sep 15, 2026, 00:03 UTC

1 48157U 21028A   26258.00217765 -.00000057  00000-0 -11277-4 0  9995
2 48157  99.5285 272.1541 0045799 211.1670 148.6762 13.77605228271879

Sigue SHIYAN 6 03 en tiempo real con AllMySat

Download on the App Store